Location: Brookview Estates
(36.0476°N, 86.6931°W)
Time: 07:56:16
(UTC+00:00)

Meteor 1-18 Rocket - Pass Details

Date: 30 March 2020
Orbit: 837 x 909 km, 81.2° (Epoch: 02 June)

Event Time Altitude Azimuth Distance (km) Brightness Sun altitude
Exits shadow 10:07:00 17° 204° (SSW) 2,115 5.9 -18.2°
Maximum altitude 10:11:32 60° 281° (W) 1,020 4.3 -17.4°
Drops below altitude 10° 10:17:17 10° 1° (N) 2,553 6.9 -16.2°
Sets 10:19:46 0° 5° (N) 3,485 7.7 -15.8°
